Location: Memphis International Airport Police
(35.0443°N, 89.9815°W)
Time: 01:31:23
(UTC+00:00)

Cosmos 1340 Rocket - Pass Details

Date: 26 September 2023
Orbit: 512 x 550 km, 81.2° (Epoch: 01 December)

Event Time Altitude Azimuth Distance (km) Brightness Sun altitude
Rises 01:37:28 0° 345° (NNW) 2,736 6.8 -22.1°
Reaches altitude 10° 01:39:42 10° 339° (NNW) 1,836 5.9 -22.5°
Maximum altitude 01:43:35 47° 266° (W) 734 3.8 -23.3°
Enters shadow 01:46:06 20° 199° (SSW) 1,311 4.7 -23.8°
